TimePDT,TemperatureF,Dew PointF,Humidity,Sea Level PressureIn,VisibilityMPH,Wind Direction,Wind SpeedMPH,Gust SpeedMPH,PrecipitationIn,Events,Conditions,WindDirDegrees,DateUTC
12:52 AM,64.9,27.0,24,29.62,10.0,West,13.8,-,N/A,,Clear,280,2013-04-09 07:52:00
1:52 AM,64.9,24.1,21,29.62,10.0,WNW,23.0,34.5,N/A,,Clear,300,2013-04-09 08:52:00
2:52 AM,64.0,21.0,19,29.63,10.0,NW,21.9,27.6,N/A,,Clear,310,2013-04-09 09:52:00
3:52 AM,63.0,21.0,20,29.65,10.0,NW,20.7,28.8,N/A,,Clear,320,2013-04-09 10:52:00
4:52 AM,61.0,19.9,21,29.67,10.0,NW,15.0,-,N/A,,Clear,320,2013-04-09 11:52:00
5:52 AM,60.1,19.9,21,29.69,10.0,NNW,13.8,-,N/A,,Clear,330,2013-04-09 12:52:00
6:52 AM,59.0,19.9,22,29.73,10.0,NW,3.5,-,N/A,,Clear,320,2013-04-09 13:52:00
7:52 AM,64.9,19.0,17,29.75,10.0,NW,16.1,-,N/A,,Clear,320,2013-04-09 14:52:00
8:52 AM,66.9,19.0,16,29.76,10.0,NNW,23.0,33.4,N/A,,Clear,330,2013-04-09 15:52:00
9:52 AM,69.1,19.0,15,29.78,10.0,NNW,23.0,29.9,N/A,,Clear,330,2013-04-09 16:52:00
10:52 AM,71.1,19.9,14,29.79,10.0,NNW,18.4,29.9,N/A,,Clear,330,2013-04-09 17:52:00
11:52 AM,73.0,19.9,14,29.79,10.0,NNW,12.7,28.8,N/A,,Clear,330,2013-04-09 18:52:00
12:52 PM,75.0,19.9,13,29.78,10.0,NNW,16.1,26.5,N/A,,Clear,340,2013-04-09 19:52:00
1:52 PM,75.0,19.0,12,29.77,10.0,NW,10.4,26.5,N/A,,Clear,320,2013-04-09 20:52:00
2:52 PM,75.9,18.0,11,29.76,10.0,NNW,12.7,25.3,N/A,,Clear,330,2013-04-09 21:52:00
3:52 PM,78.1,18.0,10,29.75,10.0,NNW,16.1,25.3,N/A,,Clear,330,2013-04-09 22:52:00
4:52 PM,77.0,17.1,10,29.75,10.0,WNW,13.8,-,N/A,,Clear,290,2013-04-09 23:52:00
5:52 PM,77.0,16.0,10,29.76,10.0,NNW,15.0,21.9,N/A,,Clear,330,2013-04-10 00:52:00
6:52 PM,75.0,15.1,10,29.77,10.0,NW,13.8,-,N/A,,Clear,310,2013-04-10 01:52:00
7:52 PM,72.0,15.1,11,29.79,10.0,NW,5.8,-,N/A,,Clear,310,2013-04-10 02:52:00
8:52 PM,71.1,14.0,11,29.82,10.0,North,6.9,-,N/A,,Clear,10,2013-04-10 03:52:00
9:52 PM,64.0,14.0,14,29.86,10.0,NNW,4.6,-,N/A,,Clear,330,2013-04-10 04:52:00
10:52 PM,66.0,19.9,17,29.91,10.0,North,9.2,-,N/A,,Clear,360,2013-04-10 05:52:00
11:52 PM,66.9,21.0,17,29.94,10.0,North,13.8,-,N/A,,Clear,360,2013-04-10 06:52:00